Location: Bijele Vode
(45.2833°N, 16.2000°E)
Time: 14:43:20
(UTC+00:00)

Cosmos 2151 Rocket - Pass Details

Date: 18 September 2020
Orbit: 617 x 642 km, 82.5° (Epoch: 30 October)

Event Time Altitude Azimuth Distance (km) Brightness Sun altitude
Rises 18:43:26 0° 186° (S) 2,897 6.8 -18.6°
Reaches altitude 10° 18:45:38 10° 186° (S) 1,999 6.0 -18.9°
Maximum altitude 18:50:04 87° 101° (ESE) 639 3.5 -19.6°
Drops below altitude 10° 18:54:36 10° 9° (N) 2,031 6.4 -20.4°
Sets 18:56:51 0° 10° (N) 2,948 7.2 -20.7°
